Weather in Beldyazhki

Russia / Oryol Oblast     52°37′32″N   35°42′23″E
temp.,
°C
wind,
m/s
gust,
m/s
humid.,
%
clouds,
%
prec.,
mm/h
press.,
hPa
HPBL,
m
17 may, tue
tue1700:00+4w411875 0.0 1012220
03:00+3wnw511905 0.0 1012239
06:00+4wnw6148733 0.0 1011399
09:00+9wnw712685 0.0 10101220
12:00+12wnw895390 0.3 10092194
15:00+13wnw795493 0.3 10082306
18:00+10wnw796641 0.4 1008710
21:00+6nnw378863 0.7 1009126
18 may, wed
wed1800:00+5wnw4109298 0.1 1009468
03:00+6nw5896100 1.4 1009530
06:00+6nnw5109394 0.0 1011509
09:00+8n6991100 0.1 1012717
12:00+10nne687759 0.1 10141074
15:00+11n587338 0.5 1015932
18:00+12n3768100 0.1 1015439
21:00+8nnw411835 0.1 1018273
19 may, thu
thu1900:00+5nnw48935 0.0 1020164
03:00+4nw35925 0.0 102069
06:00+5wnw38895 0.0 1020176
09:00+11wnw586885 0.0 1019582
12:00+14wnw795499 0.0 10191440
15:00+16wnw7105028 0.0 10181901
18:00+14wnw6106485 0.1 1017765
21:00+9wnw498188 0.1 1018166
20 may, fri
fri2000:00+8wnw498694 0.0 1018173
03:00+6nw349389 0.0 101868
06:00+8nw2288100 0.0 101884
09:00+9nnw2385100 0.0 1019240
12:00+13nw3367100 0.1 10181217
15:00+13ene1165100 0.3 1017832
18:00+12se2381100 0.4 1015177
21:00+9ese3790100 1.2 1015250
21 may, sat
sat2100:00+8ese61193100 2.7 1013424
03:00+8ese51196100 5.8 1010498
06:00+8ene61197100 6.9 1009511
09:00+7ene81392100 7.6 1008559
12:00+6ene81390100 0.0 1010956
15:00+10ene6107393 0.1 10111360
18:00+11ene586990 0.1 10111476
21:00+6ne3483100 0.1 101356